{"data":{"norad_id":53908,"epoch":"2026-09-20T23:13:59.521728Z","epoch_age_seconds":46060,"freshness":"FRESH","line1":"1 53908U 22119Y   26263.96805002  .00000471  00000+0  26927-4 0  9990","line2":"2 53908  53.1586 145.7194 0001309  83.6416 276.4734 15.31703734221469","mean_motion":15.31703734,"eccentricity":0.0001309,"inclination_deg":53.1586,"raan_deg":145.7194,"arg_perigee_deg":83.6416,"mean_anomaly_deg":276.4734,"bstar":2.6927e-5,"rev_number":22146,"period_min":94.012958774964,"perigee_km":469.83234784691,"apogee_km":471.62538093021,"semimajor_km":6848.8658643886,"source":"CELESTRAK","updated_at":"2026-09-21T09:00:33.032386Z"}}